Location: Pace/Milton
(30.6162°N, 87.1503°W)
Time: 12:34:14
(UTC-06:00)

N. Korean satellite - Pass Details

Date: 04 December 2021
Orbit: 447 x 491 km, 97.3° (Epoch: 21 January)

Event Time Altitude Azimuth Distance (km) Brightness Sun altitude
Rises 05:09:46 0° 5° (N) 2,450 10.0 -17.1°
Reaches altitude 10° 05:11:49 10° 0° (N) 1,574 9.0 -16.7°
Maximum altitude 05:15:06 52° 284° (WNW) 560 6.4 -16.0°
Drops below altitude 10° 05:18:23 10° 206° (SSW) 1,567 9.0 -15.3°
Sets 05:20:25 0° 201° (SSW) 2,438 10.1 -14.9°
